Location: Chiroubles
(46.1812°N, 4.6660°E)
Time: 05:57:56
(UTC+00:00)

Transit 4A - Pass Details

Date: 09 December 2020
Orbit: 864 x 980 km, 66.8° (Epoch: 25 January)

Event Time Altitude Azimuth Distance (km) Brightness Sun altitude
Rises 04:04:45 0° 172° (S) 3,621 11.1 -31.5°
Reaches altitude 10° 04:07:42 10° 160° (SSE) 2,695 10.5 -30.9°
Maximum altitude 04:12:43 25° 107° (ESE) 1,840 10.0 -30.1°
Drops below altitude 10° 04:17:47 10° 54° (NE) 2,738 10.9 -29.2°
Sets 04:20:48 0° 42° (NE) 3,691 11.5 -28.7°
